[[{"header":{"parameterUnit":"m.s-1","parameterCategory":1,"la1":30.2991,"la2":30.254,"lo1":-89.0895,"lo2":-89.0444,"dy":0.0017,"dx":0.0017,"nx":28,"ny":28,"refTime":"2023-10-06T09:00:00:Z","depth":0,"parameterNumber":2,"parameterNumberName":"U-component_of_WINDS"},"data":[0,0,0,0,0,0,0,0,0,0,0,0,0,0,0,0,0,0,0,0,0,0,0,0,0,0,0,0,0,0,0,0,0,0,0,0,0,0,0,0,0,0,0,0,0,0,0,0,0,0,0,0,0,0,0,0,0,0,-0.5032,-0.5031,0,-0.4979,-0.4978,-0.4977,-0.4951,-0.4951,-0.4951,-0.4951,-0.489,-0.4888,-0.4887,0,0,0,0,0,0,0,0,0,0,0,0,0,-0.5103,-0.5102,-0.5032,-0.5031,-0.5031,-0.4979,-0.4978,-0.4977,-0.4951,-0.4951,-0.4951,-0.4951,-0.489,-0.4888,-0.4887,0,0,0,0,0,0,0,0,0,0,0,0,0,-0.5063,-0.5102,-0.5032,-0.5011,-0.5009,-0.4979,-0.4978,-0.4977,-0.4951,-0.4951,-0.4951,-0.4951,-0.4891,-0.4889,-0.4886,-0.4871,0,0,-0.4879,-0.4878,0,0,0,0,0,0,0,0,-0.5066,-0.5061,-0.5015,-0.5013,-0.501,-0.4971,-0.4981,-0.4941,-0.4951,-0.4973,-0.4951,-0.4951,-0.4917,-0.4912,-0.4902,-0.4868,-0.4866,-0.4879,-0.4877,-0.4876,-0.4875,0,0,0,0,0,0,0,-0.5069,-0.5063,-0.5011,-0.5014,-0.5011,-0.5002,-0.4996,-0.4973,-0.4945,-0.4971,-0.4969,-0.4963,-0.4915,-0.4904,-0.49,-0.4865,-0.4879,-0.4876,-0.4875,-0.4874,-0.4812,-0.4812,0,0,0,0,0,0,-0.5076,-0.5065,-0.5012,-0.5009,-0.5039,-0.5001,-0.4995,-0.4984,-0.4945,-0.4939,-0.4963,-0.4962,-0.4908,-0.4903,-0.4898,-0.4876,-0.4876,-0.4874,-0.4872,-0.4813,-0.4812,-0.4812,0,0,0,0,0,0,-0.5077,-0.5071,-0.5014,-0.5037,-0.5029,-0.5,-0.4988,-0.4983,-0.4972,-0.494,-0.4934,-0.4958,-0.4908,-0.4901,-0.4878,-0.4874,-0.4873,-0.487,-0.4813,-0.4812,-0.4812,-0.4834,0,0,0,0,0,0,-0.5079,-0.5072,-0.5068,-0.5037,-0.5028,-0.4998,-0.4987,-0.4982,-0.4968,-0.4966,-0.4933,-0.4927,-0.4908,-0.4881,-0.4875,-0.487,-0.4869,-0.4813,-0.4813,-0.4812,-0.4833,-0.4834,-0.4835,0,0,0,0,0,-0.5082,-0.5075,-0.5068,-0.5062,-0.5022,-0.4998,-0.4992,-0.4972,-0.4968,-0.4963,-0.4941,-0.4928,-0.4875,-0.4879,-0.4872,-0.4866,-0.4813,-0.4813,-0.4812,-0.4833,-0.4834,-0.4835,0,0,0,0,0,0,-0.5105,-0.5071,-0.5062,-0.5046,-0.5025,-0.4993,-0.4986,-0.4974,-0.4952,-0.4951,-0.4924,-0.4917,-0.4895,-0.4878,-0.4883,-0.4848,-0.4842,-0.4841,-0.4861,-0.4861,-0.4862,-0.4867,-0.4867,0,0,0,0,0,-0.5108,-0.5093,-0.5063,-0.5051,-0.5041,-0.5015,-0.5004,-0.499,-0.4966,-0.4957,-0.4934,-0.491,-0.4887,-0.4873,-0.4851,-0.483,-0.4821,-0.4822,-0.4823,-0.4824,-0.4823,-0.4808,-0.4808,-0.4811,-0.4811,-0.4811,0,0,-0.5115,-0.5094,-0.5086,-0.5055,-0.5038,-0.502,-0.5008,-0.4991,-0.4977,-0.4953,-0.4931,-0.4912,-0.4883,-0.486,-0.4849,-0.4845,-0.4819,-0.4823,-0.4824,-0.4823,-0.4808,-0.4807,-0.4807,-0.4811,-0.4811,-0.4811,0,0,-0.5118,-0.5101,-0.5089,-0.5071,-0.5045,-0.5027,-0.5024,-0.4994,-0.4982,-0.4958,-0.494,-0.4921,-0.4884,-0.4863,-0.4848,-0.484,-0.4826,-0.4833,-0.4838,-0.4824,-0.4824,-0.4824,-0.482,-0.4819,-0.4832,-0.4832,-0.4832,0,-0.5128,-0.5104,-0.5084,-0.5067,-0.5053,-0.5032,-0.5018,-0.5001,-0.4968,-0.4957,-0.4954,-0.4905,-0.4884,-0.4856,-0.4854,-0.4842,-0.4836,-0.4838,-0.4826,-0.4825,-0.4825,-0.4821,-0.4819,-0.4833,-0.4833,-0.4833,-0.4833,0,-0.5118,-0.5101,-0.5094,-0.5064,-0.5049,-0.5034,-0.5008,-0.4995,-0.4981,-0.4963,-0.4937,-0.4911,-0.4882,-0.4874,-0.486,-0.4842,-0.484,-0.4832,-0.4826,-0.4826,-0.4821,-0.482,-0.4834,-0.4834,-0.4834,-0.4833,0,0,-0.5136,-0.5094,-0.5092,-0.5077,-0.5046,-0.5031,-0.5013,-0.4986,-0.4975,-0.4951,-0.4934,-0.4902,-0.4893,-0.4876,-0.4858,-0.4846,-0.484,-0.4838,-0.4837,-0.4839,-0.4816,-0.4823,-0.4822,-0.483,-0.483,-0.4829,-0.4818,0,-0.5134,-0.5105,-0.5084,-0.5061,-0.5044,-0.5022,-0.5006,-0.4983,-0.4965,-0.4945,-0.4923,-0.4901,-0.4892,-0.4881,-0.4867,-0.4844,-0.4835,-0.4844,-0.4811,-0.4811,-0.482,-0.482,-0.4828,-0.4819,-0.4817,-0.4816,-0.4816,0,-0.5129,-0.5108,-0.5084,-0.5053,-0.5045,-0.5031,-0.5004,-0.4987,-0.4959,-0.4946,-0.4925,-0.4908,-0.4884,-0.4879,-0.4845,-0.4852,-0.4837,-0.4823,-0.4822,-0.4818,-0.4814,-0.4816,-0.4816,-0.4815,-0.4813,-0.4814,-0.4814,0,-0.5144,-0.5109,-0.509,-0.5078,-0.5042,-0.5032,-0.5016,-0.4988,-0.4973,-0.4948,-0.4937,-0.4909,-0.4893,-0.487,-0.4844,-0.4843,-0.4812,-0.4805,-0.4798,-0.4799,-0.4794,-0.4794,-0.4791,-0.4784,-0.4784,-0.4784,-0.4784,0,-0.5144,-0.513,-0.5096,-0.5085,-0.5067,-0.5042,-0.5024,-0.5005,-0.4981,-0.4963,-0.4941,-0.4923,-0.489,-0.4867,-0.4846,-0.482,-0.4813,-0.48,-0.4794,-0.4802,-0.4804,-0.4793,-0.4792,-0.4783,-0.4783,-0.4783,-0.4784,0,-0.5158,-0.5136,-0.5113,-0.508,-0.5071,-0.5059,-0.5029,-0.5015,-0.4995,-0.4972,-0.4965,-0.4932,-0.4904,-0.4876,-0.4837,-0.4823,-0.4797,-0.479,-0.4808,-0.4805,-0.4799,-0.48,-0.4789,-0.4785,-0.4781,-0.4781,-0.4781,0,-0.5161,-0.515,-0.5115,-0.5103,-0.5088,-0.5068,-0.5052,-0.5025,-0.5009,-0.4976,-0.4965,-0.4936,-0.4912,-0.4867,-0.4838,-0.4808,-0.4799,-0.4797,-0.4794,-0.4802,-0.4798,-0.48,-0.4797,-0.4798,-0.4799,-0.4799,-0.4799,0,-0.5167,-0.5156,-0.5136,-0.5111,-0.5093,-0.5072,-0.5049,-0.5039,-0.5008,-0.499,-0.4963,-0.4944,-0.4905,-0.4876,-0.4841,-0.4821,-0.4804,-0.48,-0.4796,-0.4805,-0.4815,-0.4809,-0.4811,-0.48,-0.48,-0.48,-0.48,-0.48,-0.5175,-0.5163,-0.5137,-0.5115,-0.5095,-0.5074,-0.506,-0.5037,-0.5015,-0.4983,-0.4968,-0.494,-0.4908,-0.4861,-0.4841,-0.4816,-0.4811,-0.4807,-0.4805,-0.4805,-0.4806,-0.4819,-0.4809,-0.4809,-0.4809,-0.4809,-0.4809,0,-0.5179,-0.5161,-0.5141,-0.5111,-0.5092,-0.508,-0.5053,-0.5038,-0.5015,-0.4988,-0.4965,-0.4932,-0.4902,-0.487,-0.4838,-0.4824,-0.4815,-0.4816,-0.4817,-0.4812,-0.4813,-0.4819,-0.4824,-0.4824,-0.4824,-0.4824,-0.4824,-0.4824,-0.518,-0.516,-0.5145,-0.5113,-0.5094,-0.5069,-0.5055,-0.5034,-0.5013,-0.4978,-0.4954,-0.4934,-0.4904,-0.4869,-0.484,-0.4831,-0.482,-0.4823,-0.4812,-0.4813,-0.4812,-0.4811,-0.4817,-0.4821,-0.4821,-0.4813,-0.4813,-0.4813]},{"header":{"parameterUnit":"m.s-1","parameterCategory":1,"la1":30.2991,"la2":30.254,"lo1":-89.0895,"lo2":-89.0444,"dy":0.0017,"dx":0.0017,"nx":28,"ny":28,"refTime":"2023-10-06T09:00:00:Z","depth":0,"parameterNumber":3,"parameterNumberName":"V-component_of_WINDS"},"data":[0,0,0,0,0,0,0,0,0,0,0,0,0,0,0,0,0,0,0,0,0,0,0,0,0,0,0,0,0,0,0,0,0,0,0,0,0,0,0,0,0,0,0,0,0,0,0,0,0,0,0,0,0,0,0,0,0,0,-2.9649,-2.9651,0,-2.9847,-2.985,-2.9852,-2.9923,-2.9922,-2.9922,-2.9921,-3.0125,-3.0131,-3.0137,0,0,0,0,0,0,0,0,0,0,0,0,0,-2.9335,-2.934,-2.9649,-2.9651,-2.9654,-2.9847,-2.985,-2.9853,-2.9923,-2.9922,-2.9922,-2.9921,-3.0123,-3.013,-3.0137,0,0,0,0,0,0,0,0,0,0,0,0,0,-2.9496,-2.9342,-2.9648,-2.9712,-2.972,-2.9847,-2.985,-2.9853,-2.9923,-2.9922,-2.9921,-2.992,-3.012,-3.0129,-3.0138,-3.0216,0,0,-3.0166,-3.017,0,0,0,0,0,0,0,0,-2.9487,-2.9508,-2.9701,-2.9708,-2.9717,-2.9859,-2.9814,-2.9975,-2.9924,-2.9846,-2.9921,-2.992,-3.0037,-3.0053,-3.0093,-3.0225,-3.0234,-3.0167,-3.0173,-3.0176,-3.0179,0,0,0,0,0,0,0,-2.9476,-2.9499,-2.9728,-2.9703,-2.9713,-2.9732,-2.9754,-2.9845,-2.9945,-2.9853,-2.9859,-2.9881,-3.0042,-3.0084,-3.0098,-3.0237,-3.0167,-3.0175,-3.018,-3.0184,-3.0447,-3.0449,0,0,0,0,0,0,-2.9453,-2.949,-2.9721,-2.9733,-2.9597,-2.9739,-2.9763,-2.9815,-2.9945,-2.9963,-2.9882,-2.9884,-3.0069,-3.0087,-3.0106,-3.0208,-3.0176,-3.0185,-3.019,-3.0446,-3.0448,-3.0449,0,0,0,0,0,0,-2.9446,-2.9473,-2.9713,-2.9613,-2.9645,-2.9745,-2.9803,-2.9819,-2.9862,-2.9966,-2.9985,-2.9906,-3.0069,-3.0093,-3.0189,-3.0216,-3.0189,-3.0197,-3.0444,-3.0447,-3.0449,-3.0411,0,0,0,0,0,0,-2.9437,-2.947,-2.95,-2.9613,-2.965,-2.9792,-2.9804,-2.9824,-2.9877,-2.9881,-2.9994,-3.0012,-3.007,-3.0175,-3.0198,-3.0228,-3.0204,-3.0442,-3.0445,-3.0448,-3.041,-3.0412,-3.0413,0,0,0,0,0,-2.9426,-2.9481,-2.9501,-2.9528,-2.9689,-2.9793,-2.9815,-2.988,-2.9879,-2.991,-2.9978,-3.0008,-3.0209,-3.0184,-3.0211,-3.0244,-3.0441,-3.0444,-3.0448,-3.041,-3.0412,-3.0413,0,0,0,0,0,0,-2.9367,-2.9497,-2.952,-2.9614,-2.9692,-2.9805,-2.9847,-2.9879,-2.996,-2.996,-3.0038,-3.0063,-3.0154,-3.0208,-3.0178,-3.0328,-3.0327,-3.0336,-3.0289,-3.0292,-3.0293,-3.0278,-3.0212,0,0,0,0,0,-2.9365,-2.9438,-2.9548,-2.9619,-2.9658,-2.9745,-2.9793,-2.9837,-2.9921,-2.9955,-3.003,-3.0111,-3.0193,-3.0245,-3.0326,-3.0418,-3.0446,-3.0455,-3.0456,-3.0456,-3.0464,-3.052,-3.0526,-3.0461,-3.0461,-3.0461,0,0,-2.9362,-2.9442,-2.9483,-2.961,-2.9676,-2.9752,-2.9773,-2.9851,-2.9908,-2.9967,-3.0063,-3.0121,-3.0217,-3.0312,-3.0358,-3.0361,-3.0488,-3.0461,-3.046,-3.0468,-3.0524,-3.0531,-3.0536,-3.0463,-3.0463,-3.0462,0,0,-2.9395,-2.9461,-2.953,-2.9596,-2.9696,-2.9755,-2.9771,-2.988,-2.9921,-3.0019,-3.0065,-3.0135,-3.0273,-3.0341,-3.0393,-3.0455,-3.0487,-3.0479,-3.0487,-3.0541,-3.0546,-3.0551,-3.0576,-3.0584,-3.0486,-3.0486,-3.0486,0,-2.9378,-2.9493,-2.9561,-2.9639,-2.9694,-2.9751,-2.9823,-2.9884,-3.0005,-3.0043,-3.0044,-3.0221,-3.0289,-3.0403,-3.0419,-3.0458,-3.0482,-3.0467,-3.054,-3.0546,-3.0551,-3.0576,-3.0585,-3.0484,-3.0485,-3.0485,-3.0485,0,-2.947,-2.9549,-2.9592,-2.9709,-2.977,-2.9843,-2.9924,-2.9978,-3.0017,-3.0076,-3.0176,-3.0261,-3.0361,-3.0391,-3.0429,-3.0512,-3.0511,-3.0524,-3.0525,-3.0555,-3.058,-3.0589,-3.0482,-3.0483,-3.0483,-3.0484,0,0,-2.947,-2.9626,-2.9641,-2.9696,-2.9812,-2.9875,-2.9952,-3.0051,-3.0097,-3.0179,-3.0248,-3.0365,-3.038,-3.0439,-3.0486,-3.0533,-3.0581,-3.0542,-3.0546,-3.0548,-3.068,-3.067,-3.068,-3.0602,-3.0604,-3.0605,-3.0673,0,-2.952,-2.9661,-2.9726,-2.9839,-2.9915,-2.9971,-3.004,-3.0119,-3.0176,-3.025,-3.0314,-3.0397,-3.0408,-3.0445,-3.0495,-3.0564,-3.0608,-3.056,-3.0668,-3.0671,-3.0645,-3.0692,-3.0682,-3.0741,-3.0683,-3.0684,-3.0686,0,-2.9597,-2.9681,-2.98,-2.9911,-2.9945,-3.0005,-3.0103,-3.0172,-3.0264,-3.0303,-3.037,-3.0416,-3.0502,-3.0496,-3.0617,-3.0582,-3.0631,-3.0672,-3.0676,-3.069,-3.0681,-3.071,-3.0761,-3.0771,-3.0701,-3.07,-3.0698,0,-2.9589,-2.9731,-2.9823,-2.9868,-2.9997,-3.0039,-3.0095,-3.0186,-3.0242,-3.0328,-3.0366,-3.0459,-3.0511,-3.0584,-3.0654,-3.0643,-3.0769,-3.0768,-3.0806,-3.0804,-3.0831,-3.0828,-3.0893,-3.0858,-3.0858,-3.0857,-3.0857,0,-2.9639,-2.9711,-2.9821,-2.9877,-2.9961,-3.0036,-3.0117,-3.0177,-3.0258,-3.0329,-3.0383,-3.0448,-3.0536,-3.0613,-3.0668,-3.0762,-3.0784,-3.0819,-3.0833,-3.0816,-3.0811,-3.0849,-3.0848,-3.086,-3.0859,-3.0859,-3.0858,0,-2.9644,-2.972,-2.9824,-2.9939,-2.997,-3.0027,-3.0126,-3.0184,-3.0245,-3.0334,-3.0359,-3.0455,-3.0549,-3.0626,-3.0748,-3.0785,-3.0883,-3.0899,-3.0853,-3.0861,-3.0894,-3.0891,-3.0987,-3.1005,-3.0955,-3.0956,-3.0956,0,-2.9672,-2.9729,-2.9851,-2.9902,-2.9958,-3.0039,-3.0098,-3.0175,-3.0233,-3.0345,-3.039,-3.0487,-3.057,-3.0717,-3.0798,-3.0892,-3.0912,-3.0939,-3.0926,-3.0908,-3.0916,-3.0912,-3.092,-3.0941,-3.0941,-3.0941,-3.0941,0,-2.9714,-2.9749,-2.9831,-2.9928,-2.9996,-3.0075,-3.0156,-3.0195,-3.0288,-3.0351,-3.0448,-3.0512,-3.0639,-3.0736,-3.084,-3.0899,-3.0936,-3.0944,-3.0959,-3.0942,-3.0914,-3.0932,-3.0858,-3.0942,-3.0942,-3.0942,-3.0942,-3.0942,-2.9733,-2.9788,-2.9883,-2.9973,-3.0043,-3.0118,-3.0179,-3.0249,-3.0331,-3.044,-3.048,-3.058,-3.0675,-3.0818,-3.0878,-3.0958,-3.0962,-3.0982,-3.0987,-3.0992,-3.0991,-3.0899,-3.0977,-3.0977,-3.0977,-3.0977,-3.0977,0,-2.978,-2.9845,-2.9927,-3.0039,-3.0111,-3.0141,-3.0233,-3.0291,-3.0379,-3.0463,-3.0544,-3.0657,-3.0752,-3.0842,-3.0942,-3.0989,-3.1009,-3.1013,-3.1011,-3.1025,-3.098,-3.0959,-3.0996,-3.0996,-3.0996,-3.0996,-3.0996,-3.0996,-2.9813,-2.9908,-2.9955,-3.0087,-3.0152,-3.025,-3.0301,-3.0371,-3.044,-3.0564,-3.0644,-3.0702,-3.0789,-3.0897,-3.0986,-3.1011,-3.1046,-3.1046,-3.1074,-3.1031,-3.1028,-3.1025,-3.1006,-3.1052,-3.1052,-3.1114,-3.1114,-3.1115]}]]